Regional Weather Roundup
Issued by NWS Kansas City/Pleasant Hill, MO

Home | Current Version | Previous Version | Text Only | Print | Product List | Glossary On
Versions: 1 2 3 4 5 6 7 8 9 10 11 12 13 14 15 16 17 18 19 20 21 22 23 24 25 26 27 28 29 30 31 32 33 34 35 36 37 38 39 40 41 42 43 44 45 46 47 48 49 50
000
ASUS43 KEAX 262111
RWREAX

WEATHER ROUNDUP FOR EASTERN KANSAS AND NORTHWEST MISSOURI
NATIONAL WEATHER SERVICE KANSAS CITY/PLEASANT HILL MO
400 PM CDT SUN APR 26 2015

KSZ040-057-103>105-MOZ028-029-037-043-262200-
...KANSAS CITY METROPOLITAN AREA...

CITY           SKY/WX    TMP DP  RH WIND       PRES   REMARKS
K.C. INTL      MOSUNNY   61  43  51 NE13G21   29.94F
K.C. DOWNTOWN  LGT RAIN  63  42  46 E14G23    29.93F
LEES SUMMIT    PTSUNNY   60  42  51 NE13      29.94F
OLATHE - IXD   PTSUNNY   60  44  55 NE12      29.94F
OLATHE - OJC   SUNNY     60  44  55 E13       29.93F
LAWRENCE       MOSUNNY   60  45  57 NE12G18   29.94F

$$

MOZ001>008-011>017-020>025-030>033-038>040-044>046-053-054-262200-
...NORTHERN AND CENTRAL MISSOURI...

CITY           SKY/WX    TMP DP  RH WIND       PRES   REMARKS
ST. JOSEPH     SUNNY     62  38  40 E10       29.96F
MOSBY          CLEAR     61  37  41 NE10G16   29.95S
WARRENSBURG    SUNNY     63  39  42 NE12      29.93F
WHITEMAN AFB   SUNNY     63  43  48 NE14      29.92F
CLINTON        MOSUNNY   61  46  59 E13G20    29.92F
SEDALIA        SUNNY     63  41  44 NE12G22   29.94F
WARSAW         NOT AVBL
MARSHALL       SUNNY     64  37  36 NE14G22   29.95F
CHILLICOTHE      N/A     63  39  41 NE14      29.97F
MOBERLY        SUNNY     61  37  41 NE14G22   29.97F
KIRKSVILLE     SUNNY     61  39  44 NE12G21   29.98F

$$

MOZ041-047>049-056>058-063>065-088>090-097-262200-
...EASTERN AND SOUTHERN MISSOURI...

CITY           SKY/WX    TMP DP  RH WIND       PRES   REMARKS
ST. LOUIS INTL MOSUNNY   63  38  39 N14       29.94S
SPIRIT OF STL  SUNNY     62  36  37 NE9G17    29.92F
COLUMBIA       SUNNY     61  37  41 E15G23    29.93F
JEFFERSON CITY SUNNY     64  33  31 E15G23    29.92F
MEXICO         SUNNY     64  43  45 NE12G20   29.96
HANNIBAL       SUNNY     64  27  24 NE9G18    29.97F
ROLLA          SUNNY     61  37  41 NE8G18    29.90F
LEBANON        PTSUNNY   57  45  62 E7        29.91F
OSAGE BEACH    PTSUNNY   63  43  48 E8G17     29.91F
SPRINGFIELD    CLOUDY    53  44  71 NE12      29.90F
BRANSON        CLOUDY    59  48  67 E7        29.88F
NEVADA         CLOUDY    55  45  67 E12       29.93F
JOPLIN         CLOUDY    56  47  71 NE15G22   29.88S
WEST PLAINS    CLOUDY    56  45  66 NE8       29.90F

$$

IAZ060-094-KSZ022-034>040-054-083-096-NEZ052-066-093-262200-
...KANSAS...SOUTHEAST NEBRASKA AND IOWA...

CITY           SKY/WX    TMP DP  RH WIND       PRES   REMARKS
TOPEKA         PTSUNNY   59  44  57 E16       29.94F
MANHATTAN      CLOUDY    54  45  71 E15       29.95F
EMPORIA        CLOUDY    53  44  71 E17       29.91F
CHANUTE        CLOUDY    56  46  69 NE15G26   29.88F
WICHITA        CLOUDY    57  47  69 NE23      29.84F
OMAHA          MOSUNNY   64  36  35 E16G24    30.01F
LINCOLN        MOSUNNY   62  41  46 E13G23    30.00F
FALLS CITY     SUNNY     62  40  44 E18       29.95F
LAMONI         SUNNY     63  35  35 NE12      29.99F
DES MOINES     SUNNY     64  28  25 E10       30.02F

$$



USA.gov is the U.S. government's official web portal to all federal, state and local government web resources and services.